QPF
0.03 0.05 0.05 0.03 0.02 0.02 0.02 0.03 0.02 0.01 0.01 0.01 0.01 0.01 0.02 0.03 0.05 0.12 0.18 0.15 0.08 0.06 0.05 0.03 0.04 0.03 0.03 0.04 0.04 0.04 0.04 0.04 0.03 0.03 0.03 0.03 0.03 0.03 0.04 0.04 0.06 0.08 0.09 0.09 0.09 0.07 0.05 0.04 0.05
0.03 0.04 0.03 0.02 0.02 0.01 0.02 0.02 0.02 0.02 0.02 0.01 0.01 0.01 0.01 0.04 0.09 0.15 0.14 0.12 0.06 0.03 0.02 0.02 0.03 0.03 0.03 0.04 0.03 0.03 0.03 0.03 0.03 0.03 0.03 0.04 0.04 0.04 0.04 0.04 0.06 0.08 0.08 0.09 0.08 0.06 0.04 0.04 0.04
0.02 0.01 0.02 0.02 0.01 0.01 0.01 0.01 0.01 0.01 0.02 0.02 0.01 0.01 0.02 0.06 0.10 0.14 0.12 0.09 0.05 0.02 0.02 0.03 0.04 0.03 0.04 0.04 0.04 0.04 0.04 0.04 0.04 0.04 0.03 0.04 0.04 0.03 0.03 0.05 0.07 0.09 0.10 0.11 0.09 0.08 0.07 0.06 0.04
0.01 0.03 0.02 0.01 0.01 0.01 0.00 0.00 0.00 0.00 0.01 0.02 0.02 0.02 0.04 0.06 0.09 0.10 0.09 0.05 0.03 0.02 0.03 0.03 0.03 0.02 0.03 0.05 0.05 0.05 0.05 0.05 0.04 0.04 0.03 0.04 0.04 0.04 0.04 0.05 0.06 0.09 0.12 0.12 0.11 0.10 0.07 0.04 0.04
0.01 0.02 0.01 0.01 0.00 0.01 0.00 0.00 0.00 0.00 0.00 0.01 0.01 0.02 0.05 0.08 0.08 0.07 0.05 0.02 0.01 0.02 0.02 0.03 0.03 0.03 0.03 0.05 0.07 0.06 0.05 0.05 0.05 0.05 0.04 0.04 0.04 0.04 0.05 0.06 0.06 0.08 0.12 0.13 0.12 0.11 0.06 0.04 0.04
0.00 0.01 0.02 0.01 0.01 0.00 0.00 0.00 0.00 0.00 0.00 0.00 0.00 0.01 0.07 0.11 0.10 0.07 0.04 0.03 0.01 0.01 0.01 0.03 0.04 0.04 0.03 0.03 0.05 0.06 0.05 0.06 0.05 0.05 0.05 0.06 0.05 0.05 0.06 0.07 0.07 0.08 0.09 0.09 0.12 0.13 0.09 0.06 0.05
0.00 0.01 0.03 0.01 0.01 0.00 0.00 0.00 0.00 0.00 0.00 0.00 0.00 0.01 0.05 0.06 0.07 0.07 0.04 0.03 0.02 0.01 0.01 0.02 0.03 0.03 0.02 0.02 0.03 0.06 0.08 0.09 0.09 0.09 0.09 0.08 0.07 0.07 0.07 0.07 0.09 0.09 0.09 0.07 0.11 0.12 0.09 0.06 0.03
0.01 0.01 0.01 0.01 0.00 0.01 0.00 0.00 0.00 0.00 0.00 0.00 0.00 0.00 0.02 0.03 0.03 0.03 0.02 0.02 0.01 0.02 0.02 0.02 0.02 0.02 0.01 0.01 0.03 0.05 0.10 0.13 0.14 0.14 0.13 0.14 0.14 0.11 0.11 0.11 0.10 0.10 0.09 0.08 0.07 0.04 0.03 0.03 0.03
0.00 0.01 0.00 0.00 0.00 0.00 0.00 0.00 0.00 0.00 0.00 0.00 0.00 0.00 0.00 0.01 0.01 0.01 0.01 0.01 0.02 0.02 0.03 0.03 0.03 0.06 0.02 0.00 0.01 0.03 0.06 0.09 0.09 0.10 0.14 0.18 0.15 0.13 0.12 0.08 0.08 0.09 0.11 0.10 0.07 0.04 0.04 0.03 0.03
0.00 0.00 0.00 0.00 0.00 0.00 0.00 0.01 0.00 0.00 0.00 0.00 0.00 0.00 0.00 0.00 0.00 0.01 0.01 0.02 0.02 0.02 0.03 0.03 0.03 0.01 0.01 0.00 0.01 0.01 0.02 0.03 0.04 0.05 0.08 0.10 0.13 0.12 0.08 0.06 0.06 0.07 0.11 0.11 0.07 0.05 0.05 0.04 0.03
0.00 0.00 0.00 0.00 0.00 0.00 0.00 0.01 0.00 0.00 0.00 0.00 0.00 0.00 0.00 0.00 0.00 0.00 0.00 0.01 0.01 0.02 0.03 0.03 0.02 0.02 0.01 0.01 0.01 0.01 0.02 0.03 0.03 0.03 0.05 0.06 0.08 0.08 0.06 0.07 0.07 0.10 0.12 0.11 0.06 0.04 0.05 0.05 0.04
0.00 0.00 0.00 0.00 0.00 0.00 0.00 0.00 0.00 0.00 0.00 0.00 0.00 0.00 0.00 0.00 0.00 0.00 0.00 0.00 0.01 0.02 0.03 0.03 0.01 0.01 0.01 0.01 0.02 0.01 0.02 0.03 0.03 0.03 0.03 0.04 0.06 0.07 0.07 0.09 0.08 0.10 0.13 0.09 0.05 0.03 0.03 0.06 0.06
0.00 0.00 0.00 0.00 0.00 0.00 0.00 0.00 0.00 0.00 0.00 0.00 0.00 0.00 0.00 0.00 0.01 0.00 0.00 0.00 0.00 0.00 0.01 0.01 0.01 0.01 0.01 0.01 0.02 0.01 0.02 0.02 0.02 0.03 0.03 0.03 0.05 0.06 0.06 0.08 0.07 0.10 0.09 0.06 0.04 0.04 0.04 0.04 0.05
0.00 0.00 0.00 0.00 0.00 0.00 0.01 0.02 0.00 0.00 0.00 0.00 0.00 0.00 0.00 0.00 0.00 0.00 0.00 0.00 0.00 0.00 0.00 0.00 0.01 0.00 0.00 0.01 0.01 0.01 0.01 0.01 0.01 0.02 0.02 0.03 0.05 0.06 0.07 0.07 0.07 0.08 0.06 0.04 0.03 0.04 0.05 0.04 0.05
0.00 0.00 0.01 0.00 0.00 0.00 0.00 0.01 0.01 0.01 0.00 0.00 0.00 0.00 0.00 0.00 0.00 0.00 0.00 0.00 0.00 0.00 0.00 0.00 0.00 0.00 0.00 0.01 0.01 0.01 0.01 0.01 0.02 0.02 0.02 0.04 0.05 0.06 0.06 0.05 0.05 0.04 0.04 0.03 0.03 0.04 0.04 0.04 0.04
0.01 0.01 0.01 0.01 0.00 0.00 0.00 0.02 0.02 0.01 0.01 0.01 0.01 0.01 0.01 0.00 0.00 0.00 0.01 0.01 0.01 0.01 0.01 0.00 0.00 0.00 0.00 0.01 0.01 0.01 0.01 0.01 0.02 0.02 0.02 0.04 0.05 0.05 0.05 0.05 0.04 0.03 0.03 0.03 0.04 0.03 0.03 0.03 0.03
0.01 0.01 0.01 0.01 0.00 0.00 0.00 0.01 0.01 0.02 0.02 0.01 0.01 0.01 0.03 0.01 0.01 0.02 0.03 0.02 0.01 0.02 0.02 0.01 0.00 0.00 0.01 0.01 0.01 0.01 0.01 0.01 0.01 0.02 0.03 0.04 0.05 0.05 0.04 0.06 0.05 0.04 0.03 0.03 0.03 0.05 0.04 0.03 0.02
0.01 0.01 0.01 0.01 0.00 0.01 0.01 0.01 0.01 0.02 0.01 0.01 0.01 0.00 0.02 0.03 0.02 0.02 0.04 0.03 0.02 0.02 0.04 0.05 0.03 0.01 0.01 0.02 0.01 0.01 0.02 0.01 0.02 0.03 0.05 0.07 0.06 0.05 0.04 0.08 0.05 0.04 0.04 0.05 0.05 0.06 0.05 0.05 0.04
0.01 0.01 0.01 0.00 0.00 0.00 0.01 0.01 0.01 0.01 0.01 0.01 0.01 0.01 0.02 0.05 0.02 0.01 0.01 0.02 0.02 0.03 0.09 0.19 0.08 0.03 0.02 0.02 0.01 0.02 0.02 0.02 0.03 0.04 0.06 0.08 0.07 0.06 0.06 0.07 0.06 0.06 0.06 0.06 0.07 0.07 0.05 0.04 0.05
0.00 0.01 0.00 0.00 0.01 0.01 0.01 0.01 0.01 0.01 0.02 0.03 0.03 0.03 0.04 0.06 0.02 0.01 0.01 0.01 0.02 0.02 0.03 0.06 0.04 0.03 0.03 0.02 0.01 0.01 0.01 0.02 0.03 0.04 0.06 0.06 0.06 0.06 0.06 0.09 0.08 0.08 0.07 0.06 0.07 0.08 0.06 0.04 0.06
0.00 0.00 0.01 0.01 0.01 0.01 0.01 0.02 0.02 0.02 0.02 0.03 0.04 0.05 0.05 0.03 0.01 0.01 0.00 0.00 0.01 0.01 0.02 0.02 0.02 0.03 0.03 0.02 0.02 0.01 0.01 0.01 0.02 0.03 0.05 0.05 0.07 0.07 0.07 0.08 0.07 0.07 0.08 0.08 0.07 0.07 0.07 0.07 0.06
0.00 0.00 0.00 0.01 0.01 0.01 0.02 0.02 0.02 0.03 0.03 0.04 0.05 0.03 0.02 0.01 0.01 0.01 0.01 0.01 0.01 0.01 0.01 0.01 0.01 0.01 0.02 0.02 0.02 0.02 0.02 0.02 0.02 0.04 0.05 0.07 0.08 0.07 0.09 0.09 0.06 0.05 0.06 0.06 0.06 0.07 0.09 0.13 0.07
0.00 0.00 0.00 0.00 0.01 0.01 0.02 0.01 0.02 0.03 0.03 0.04 0.03 0.02 0.02 0.02 0.01 0.02 0.02 0.02 0.01 0.00 0.01 0.01 0.01 0.01 0.02 0.02 0.02 0.02 0.02 0.02 0.03 0.04 0.04 0.06 0.07 0.09 0.13 0.12 0.08 0.07 0.05 0.07 0.07 0.07 0.07 0.09 0.06
0.00 0.00 0.00 0.01 0.00 0.00 0.01 0.01 0.01 0.01 0.01 0.02 0.01 0.01 0.01 0.03 0.03 0.02 0.02 0.02 0.01 0.00 0.01 0.01 0.01 0.01 0.02 0.02 0.03 0.04 0.04 0.03 0.03 0.03 0.04 0.06 0.07 0.09 0.12 0.12 0.08 0.06 0.06 0.06 0.05 0.07 0.07 0.07 0.07
0.00 0.00 0.00 0.00 0.00 0.00 0.00 0.00 0.00 0.00 0.01 0.01 0.01 0.01 0.02 0.03 0.03 0.02 0.01 0.01 0.01 0.01 0.01 0.02 0.02 0.02 0.01 0.02 0.03 0.04 0.04 0.03 0.03 0.03 0.03 0.04 0.03 0.03 0.09 0.10 0.08 0.07 0.06 0.06 0.06 0.09 0.07 0.05 0.06
0.00 0.00 0.00 0.00 0.01 0.01 0.00 0.01 0.01 0.01 0.01 0.02 0.02 0.02 0.03 0.04 0.02 0.02 0.02 0.02 0.01 0.01 0.02 0.02 0.02 0.02 0.02 0.01 0.02 0.02 0.03 0.03 0.03 0.02 0.02 0.03 0.02 0.02 0.06 0.08 0.06 0.05 0.04 0.05 0.06 0.07 0.07 0.06 0.05
0.00 0.00 0.00 0.00 0.00 0.00 0.01 0.01 0.01 0.04 0.06 0.08 0.09 0.05 0.03 0.04 0.03 0.02 0.02 0.01 0.01 0.02 0.02 0.02 0.01 0.02 0.02 0.01 0.01 0.02 0.03 0.03 0.03 0.03 0.03 0.03 0.03 0.04 0.04 0.03 0.06 0.06 0.05 0.07 0.07 0.06 0.08 0.10 0.10
0.00 0.00 0.00 0.00 0.00 0.00 0.01 0.01 0.01 0.08 0.07 0.03 0.04 0.03 0.02 0.04 0.05 0.02 0.01 0.01 0.02 0.02 0.02 0.02 0.02 0.02 0.01 0.01 0.02 0.03 0.04 0.05 0.04 0.03 0.02 0.03 0.03 0.05 0.06 0.05 0.07 0.09 0.08 0.08 0.09 0.09 0.09 0.09 0.09
0.00 0.00 0.00 0.00 0.00 0.00 0.01 0.01 0.00 0.02 0.02 0.02 0.02 0.02 0.02 0.02 0.04 0.04 0.02 0.01 0.02 0.02 0.02 0.01 0.02 0.01 0.01 0.03 0.05 0.06 0.07 0.07 0.07 0.06 0.04 0.04 0.03 0.04 0.05 0.08 0.12 0.10 0.08 0.07 0.07 0.06 0.06 0.06 0.06
0.00 0.00 0.00 0.00 0.00 0.00 0.00 0.01 0.00 0.00 0.01 0.02 0.02 0.02 0.02 0.02 0.03 0.03 0.01 0.01 0.02 0.01 0.01 0.01 0.01 0.01 0.01 0.04 0.08 0.09 0.09 0.07 0.07 0.07 0.08 0.07 0.05 0.06 0.11 0.13 0.12 0.09 0.07 0.06 0.06 0.06 0.05 0.05 0.05
MSLP
1006.00 1007.09 1008.48 1010.00 1011.47 1012.71 1013.62 1014.16 1014.37 1014.33 1014.21 1014.12 1014.16 1014.35 1014.66 1015.02 1015.31 1015.45 1015.37 1015.10 1014.66 1014.14 1013.63 1013.20 1012.90 1012.71 1012.60 1012.53 1012.43 1012.29 1012.10 1011.89 1011.71 1011.60 1011.59 1011.66 1011.80 1011.97 1012.12 1012.20 1012.22 1012.16 1012.08 1011.98 1011.92 1011.90 1011.94 1012.02 1012.12
1006.38 1007.75 1009.34 1010.97 1012.42 1013.55 1014.27 1014.57 1014.52 1014.26 1013.94 1013.72 1013.68 1013.83 1014.15 1014.53 1014.87 1015.07 1015.07 1014.87 1014.51 1014.08 1013.65 1013.30 1013.05 1012.91 1012.83 1012.77 1012.68 1012.55 1012.39 1012.22 1012.08 1012.01 1012.03 1012.14 1012.30 1012.47 1012.61 1012.68 1012.67 1012.61 1012.51 1012.40 1012.34 1012.32 1012.35 1012.42 1012.51
1006.93 1008.52 1010.24 1011.89 1013.26 1014.23 1014.73 1014.79 1014.51 1014.06 1013.61 1013.30 1013.21 1013.36 1013.69 1014.10 1014.47 1014.71 1014.75 1014.61 1014.32 1013.96 1013.61 1013.33 1013.16 1013.07 1013.05 1013.03 1012.98 1012.89 1012.76 1012.62 1012.50 1012.46 1012.48 1012.58 1012.72 1012.87 1012.98 1013.02 1013.00 1012.93 1012.84 1012.76 1012.71 1012.70 1012.75 1012.82 1012.90
1007.59 1009.32 1011.09 1012.68 1013.92 1014.70 1014.99 1014.84 1014.39 1013.82 1013.29 1012.95 1012.86 1013.02 1013.37 1013.80 1014.18 1014.42 1014.49 1014.37 1014.13 1013.83 1013.55 1013.35 1013.25 1013.23 1013.27 1013.31 1013.31 1013.26 1013.17 1013.05 1012.95 1012.90 1012.91 1012.98 1013.07 1013.17 1013.24 1013.26 1013.23 1013.17 1013.10 1013.05 1013.04 1013.06 1013.13 1013.21 1013.30
1008.29 1010.05 1011.77 1013.25 1014.33 1014.93 1015.04 1014.76 1014.22 1013.60 1013.07 1012.75 1012.69 1012.88 1013.24 1013.66 1014.03 1014.26 1014.31 1014.20 1013.98 1013.73 1013.51 1013.38 1013.36 1013.41 1013.51 1013.60 1013.65 1013.64 1013.58 1013.48 1013.39 1013.32 1013.31 1013.33 1013.38 1013.43 1013.45 1013.45 1013.42 1013.37 1013.33 1013.31 1013.33 1013.39 1013.47 1013.57 1013.66
1008.91 1010.61 1012.20 1013.52 1014.43 1014.88 1014.89 1014.56 1014.02 1013.44 1012.99 1012.74 1012.74 1012.96 1013.31 1013.71 1014.03 1014.22 1014.24 1014.13 1013.93 1013.72 1013.56 1013.49 1013.53 1013.63 1013.77 1013.90 1013.98 1013.99 1013.95 1013.86 1013.77 1013.70 1013.66 1013.66 1013.67 1013.68 1013.67 1013.65 1013.61 1013.57 1013.55 1013.56 1013.61 1013.68 1013.78 1013.87 1013.96
1009.36 1010.90 1012.32 1013.45 1014.22 1014.57 1014.55 1014.26 1013.81 1013.37 1013.04 1012.90 1012.97 1013.21 1013.55 1013.89 1014.15 1014.28 1014.27 1014.16 1013.98 1013.82 1013.71 1013.70 1013.77 1013.91 1014.06 1014.19 1014.27 1014.29 1014.25 1014.18 1014.10 1014.04 1014.00 1013.98 1013.98 1013.97 1013.95 1013.91 1013.86 1013.83 1013.81 1013.82 1013.87 1013.94 1014.03 1014.11 1014.19
1009.60 1010.93 1012.12 1013.08 1013.72 1014.04 1014.07 1013.89 1013.61 1013.34 1013.18 1013.16 1013.30 1013.55 1013.85 1014.12 1014.32 1014.39 1014.36 1014.25 1014.11 1014.00 1013.95 1013.97 1014.07 1014.21 1014.35 1014.46 1014.51 1014.51 1014.47 1014.41 1014.36 1014.32 1014.31 1014.32 1014.33 1014.33 1014.30 1014.26 1014.19 1014.13 1014.09 1014.09 1014.11 1014.16 1014.22 1014.29 1014.36
1009.62 1010.72 1011.69 1012.48 1013.04 1013.37 1013.49 1013.47 1013.40 1013.34 1013.35 1013.45 1013.64 1013.88 1014.12 1014.32 1014.44 1014.47 1014.43 1014.35 1014.26 1014.21 1014.22 1014.29 1014.39 1014.52 1014.62 1014.68 1014.69 1014.66 1014.61 1014.57 1014.55 1014.56 1014.61 1014.66 1014.71 1014.73 1014.71 1014.66 1014.57 1014.48 1014.40 1014.35 1014.33 1014.34 1014.37 1014.42 1014.47
1009.52 1010.38 1011.15 1011.80 1012.30 1012.66 1012.90 1013.07 1013.20 1013.33 1013.49 1013.68 1013.89 1014.10 1014.27 1014.40 1014.46 1014.46 1014.43 1014.39 1014.37 1014.40 1014.47 1014.57 1014.68 1014.78 1014.83 1014.84 1014.80 1014.74 1014.68 1014.65 1014.68 1014.75 1014.86 1014.98 1015.08 1015.13 1015.13 1015.07 1014.96 1014.82 1014.70 1014.59 1014.52 1014.48 1014.48 1014.50 1014.55
1009.41 1010.06 1010.65 1011.18 1011.64 1012.04 1012.40 1012.72 1013.02 1013.30 1013.56 1013.80 1014.00 1014.16 1014.26 1014.31 1014.32 1014.31 1014.31 1014.33 1014.40 1014.50 1014.63 1014.77 1014.89 1014.95 1014.96 1014.91 1014.83 1014.74 1014.68 1014.68 1014.75 1014.88 1015.05 1015.23 1015.39 1015.48 1015.49 1015.42 1015.29 1015.12 1014.94 1014.79 1014.67 1014.59 1014.56 1014.57 1014.62
1009.44 1009.92 1010.36 1010.78 1011.20 1011.63 1012.06 1012.49 1012.89 1013.26 1013.57 1013.81 1013.97 1014.06 1014.08 1014.07 1014.05 1014.04 1014.07 1014.16 1014.30 1014.48 1014.67 1014.84 1014.96 1015.01 1014.99 1014.91 1014.80 1014.70 1014.64 1014.66 1014.76 1014.94 1015.16 1015.39 1015.59 1015.70 1015.73 1015.66 1015.51 1015.32 1015.11 1014.92 1014.77 1014.68 1014.64 1014.64 1014.69
1009.71 1010.04 1010.36 1010.69 1011.06 1011.48 1011.94 1012.41 1012.85 1013.23 1013.53 1013.73 1013.82 1013.84 1013.80 1013.73 1013.69 1013.69 1013.76 1013.89 1014.09 1014.33 1014.56 1014.76 1014.90 1014.95 1014.92 1014.83 1014.72 1014.62 1014.58 1014.61 1014.74 1014.94 1015.19 1015.44 1015.64 1015.78 1015.82 1015.75 1015.61 1015.41 1015.20 1015.01 1014.85 1014.75 1014.72 1014.73 1014.78
1010.25 1010.48 1010.70 1010.94 1011.25 1011.62 1012.05 1012.49 1012.90 1013.23 1013.47 1013.60 1013.62 1013.57 1013.48 1013.38 1013.32 1013.34 1013.43 1013.60 1013.83 1014.09 1014.34 1014.55 1014.70 1014.76 1014.76 1014.70 1014.61 1014.55 1014.52 1014.57 1014.70 1014.89 1015.12 1015.36 1015.56 1015.69 1015.73 1015.69 1015.57 1015.40 1015.22 1015.05 1014.91 1014.84 1014.81 1014.84 1014.90
1011.01 1011.16 1011.29 1011.45 1011.68 1011.99 1012.34 1012.70 1013.02 1013.27 1013.42 1013.47 1013.42 1013.32 1013.20 1013.09 1013.04 1013.06 1013.16 1013.33 1013.55 1013.80 1014.04 1014.25 1014.41 1014.51 1014.55 1014.55 1014.52 1014.50 1014.51 1014.56 1014.67 1014.82 1015.00 1015.19 1015.35 1015.47 1015.52 1015.51 1015.43 1015.32 1015.19 1015.07 1014.98 1014.94 1014.94 1014.98 1015.05
1011.84 1011.93 1011.99 1012.09 1012.25 1012.47 1012.73 1012.98 1013.19 1013.33 1013.38 1013.35 1013.26 1013.13 1013.01 1012.92 1012.88 1012.91 1013.00 1013.14 1013.32 1013.53 1013.73 1013.92 1014.09 1014.23 1014.33 1014.41 1014.46 1014.51 1014.55 1014.60 1014.67 1014.76 1014.87 1014.98 1015.09 1015.18 1015.24 1015.26 1015.25 1015.21 1015.15 1015.10 1015.07 1015.06 1015.09 1015.14 1015.21
1012.58 1012.63 1012.65 1012.71 1012.82 1012.97 1013.13 1013.28 1013.37 1013.39 1013.34 1013.24 1013.11 1012.99 1012.89 1012.84 1012.83 1012.87 1012.95 1013.05 1013.17 1013.30 1013.44 1013.60 1013.77 1013.95 1014.14 1014.31 1014.45 1014.57 1014.65 1014.70 1014.72 1014.73 1014.74 1014.77 1014.81 1014.87 1014.94 1015.00 1015.06 1015.11 1015.14 1015.16 1015.19 1015.21 1015.26 1015.31 1015.38
1013.08 1013.10 1013.13 1013.20 1013.29 1013.40 1013.49 1013.54 1013.51 1013.42 1013.27 1013.11 1012.95 1012.84 1012.79 1012.79 1012.83 1012.89 1012.96 1013.01 1013.06 1013.12 1013.19 1013.31 1013.49 1013.71 1013.97 1014.24 1014.49 1014.68 1014.80 1014.84 1014.82 1014.75 1014.67 1014.60 1014.58 1014.60 1014.68 1014.79 1014.92 1015.05 1015.16 1015.25 1015.32 1015.37 1015.42 1015.47 1015.52
1013.23 1013.28 1013.37 1013.50 1013.64 1013.75 1013.80 1013.75 1013.62 1013.40 1013.14 1012.90 1012.72 1012.62 1012.61 1012.67 1012.77 1012.87 1012.94 1012.97 1012.96 1012.95 1012.97 1013.05 1013.22 1013.49 1013.82 1014.19 1014.53 1014.80 1014.97 1015.01 1014.95 1014.81 1014.64 1014.49 1014.41 1014.40 1014.48 1014.64 1014.83 1015.03 1015.21 1015.35 1015.44 1015.51 1015.55 1015.59 1015.64
1013.06 1013.19 1013.40 1013.65 1013.89 1014.05 1014.09 1013.97 1013.71 1013.34 1012.95 1012.60 1012.36 1012.24 1012.26 1012.38 1012.54 1012.69 1012.80 1012.83 1012.80 1012.75 1012.73 1012.79 1012.96 1013.26 1013.66 1014.11 1014.54 1014.89 1015.10 1015.16 1015.07 1014.88 1014.65 1014.44 1014.30 1014.27 1014.35 1014.54 1014.77 1015.02 1015.25 1015.42 1015.53 1015.59 1015.62 1015.65 1015.69
1012.65 1012.94 1013.34 1013.78 1014.17 1014.41 1014.44 1014.24 1013.84 1013.29 1012.71 1012.20 1011.83 1011.66 1011.67 1011.82 1012.05 1012.28 1012.44 1012.51 1012.50 1012.45 1012.42 1012.47 1012.66 1013.00 1013.45 1013.97 1014.47 1014.88 1015.15 1015.24 1015.15 1014.94 1014.67 1014.41 1014.24 1014.19 1014.27 1014.46 1014.72 1014.99 1015.24 1015.42 1015.54 1015.59 1015.61 1015.63 1015.68
1012.20 1012.70 1013.35 1014.03 1014.60 1014.93 1014.96 1014.66 1014.06 1013.28 1012.45 1011.71 1011.16 1010.86 1010.82 1010.98 1011.27 1011.58 1011.83 1011.98 1012.02 1012.01 1012.01 1012.08 1012.28 1012.64 1013.13 1013.70 1014.27 1014.74 1015.06 1015.19 1015.13 1014.92 1014.65 1014.38 1014.18 1014.11 1014.17 1014.36 1014.61 1014.89 1015.13 1015.32 1015.43 1015.48 1015.50 1015.53 1015.60
1011.87 1012.63 1013.57 1014.50 1015.26 1015.68 1015.68 1015.24 1014.42 1013.35 1012.21 1011.18 1010.39 1009.91 1009.77 1009.91 1010.23 1010.62 1010.98 1011.23 1011.37 1011.43 1011.48 1011.58 1011.81 1012.18 1012.70 1013.30 1013.91 1014.44 1014.82 1015.00 1014.99 1014.82 1014.56 1014.30 1014.09 1014.00 1014.03 1014.19 1014.42 1014.67 1014.90 1015.08 1015.19 1015.25 1015.29 1015.34 1015.44
1011.79 1012.84 1014.06 1015.24 1016.16 1016.64 1016.58 1015.97 1014.89 1013.51 1012.03 1010.66 1009.59 1008.90 1008.63 1008.71 1009.05 1009.51 1009.97 1010.34 1010.59 1010.74 1010.85 1011.00 1011.24 1011.63 1012.15 1012.77 1013.40 1013.98 1014.41 1014.66 1014.71 1014.60 1014.39 1014.14 1013.93 1013.82 1013.82 1013.93 1014.11 1014.33 1014.54 1014.71 1014.83 1014.91 1014.98 1015.08 1015.22
1012.00 1013.33 1014.80 1016.18 1017.21 1017.70 1017.56 1016.76 1015.41 1013.70 1011.89 1010.20 1008.84 1007.93 1007.51 1007.52 1007.85 1008.37 1008.92 1009.40 1009.76 1010.00 1010.18 1010.36 1010.62 1011.00 1011.51 1012.13 1012.78 1013.39 1013.88 1014.20 1014.33 1014.28 1014.12 1013.90 1013.70 1013.56 1013.51 1013.56 1013.69 1013.87 1014.05 1014.22 1014.36 1014.49 1014.62 1014.77 1014.97
1012.45 1014.00 1015.65 1017.15 1018.23 1018.69 1018.43 1017.45 1015.86 1013.88 1011.77 1009.81 1008.20 1007.10 1006.53 1006.47 1006.79 1007.34 1007.95 1008.52 1008.97 1009.29 1009.52 1009.73 1009.99 1010.36 1010.85 1011.45 1012.10 1012.74 1013.28 1013.66 1013.86 1013.89 1013.79 1013.60 1013.40 1013.23 1013.14 1013.13 1013.20 1013.33 1013.50 1013.67 1013.86 1014.04 1014.24 1014.46 1014.72
1013.01 1014.69 1016.42 1017.95 1019.00 1019.38 1019.00 1017.86 1016.10 1013.92 1011.63 1009.48 1007.72 1006.48 1005.81 1005.68 1005.98 1006.53 1007.18 1007.80 1008.31 1008.68 1008.94 1009.16 1009.42 1009.76 1010.23 1010.81 1011.45 1012.09 1012.67 1013.11 1013.38 1013.48 1013.43 1013.28 1013.08 1012.88 1012.74 1012.67 1012.69 1012.78 1012.94 1013.13 1013.37 1013.62 1013.90 1014.20 1014.53
1013.51 1015.21 1016.91 1018.36 1019.32 1019.59 1019.10 1017.86 1016.01 1013.77 1011.41 1009.21 1007.39 1006.10 1005.39 1005.22 1005.48 1006.03 1006.68 1007.31 1007.83 1008.22 1008.49 1008.72 1008.96 1009.28 1009.71 1010.26 1010.89 1011.54 1012.14 1012.62 1012.94 1013.10 1013.09 1012.97 1012.77 1012.56 1012.38 1012.26 1012.23 1012.30 1012.45 1012.68 1012.96 1013.29 1013.66 1014.04 1014.42
1013.80 1015.40 1016.96 1018.25 1019.04 1019.19 1018.61 1017.35 1015.53 1013.35 1011.08 1008.97 1007.22 1005.98 1005.28 1005.10 1005.34 1005.84 1006.46 1007.06 1007.56 1007.94 1008.21 1008.42 1008.65 1008.95 1009.36 1009.89 1010.50 1011.14 1011.74 1012.25 1012.61 1012.80 1012.83 1012.73 1012.54 1012.32 1012.11 1011.97 1011.92 1011.97 1012.13 1012.39 1012.73 1013.13 1013.56 1014.01 1014.44
1013.82 1015.22 1016.54 1017.59 1018.18 1018.20 1017.58 1016.37 1014.68 1012.69 1010.64 1008.75 1007.18 1006.07 1005.45 1005.28 1005.48 1005.93 1006.47 1007.01 1007.47 1007.82 1008.07 1008.28 1008.51 1008.80 1009.20 1009.71 1010.30 1010.93 1011.53 1012.04 1012.42 1012.63 1012.69 1012.61 1012.44 1012.22 1012.01 1011.86 1011.81 1011.86 1012.04 1012.33 1012.71 1013.16 1013.65 1014.14 1014.61
Thickness
5853 5851 5847 5833 5807 5781 5772 5781 5790 5789 5787 5792 5797 5792 5781 5773 5762 5751 5768 5777 5777 5777 5777 5777 5778 5778 5778 5778 5778 5778 5778 5777 5777 5776 5775 5774 5773 5772 5771 5770 5768 5766 5764 5762 5761 5760 5759 5757 5756
5857 5853 5841 5821 5788 5764 5768 5785 5788 5790 5794 5799 5798 5792 5783 5774 5777 5771 5772 5776 5778 5777 5777 5777 5776 5777 5777 5777 5777 5777 5776 5775 5775 5774 5773 5772 5771 5770 5769 5768 5766 5765 5763 5761 5760 5758 5757 5756 5754
5861 5855 5829 5806 5784 5771 5774 5789 5793 5798 5804 5803 5795 5793 5784 5775 5778 5776 5777 5779 5778 5777 5776 5776 5776 5775 5775 5775 5775 5775 5775 5774 5773 5772 5771 5770 5770 5769 5768 5766 5765 5763 5761 5760 5758 5757 5756 5755 5753
5858 5841 5824 5797 5785 5794 5797 5798 5803 5800 5800 5802 5796 5784 5784 5788 5785 5782 5782 5781 5779 5777 5776 5776 5775 5775 5774 5774 5774 5773 5773 5772 5771 5770 5770 5769 5768 5767 5766 5765 5764 5762 5760 5759 5757 5756 5755 5754 5753
5857 5829 5802 5787 5791 5802 5809 5811 5810 5800 5795 5794 5793 5777 5774 5787 5790 5787 5784 5782 5778 5777 5776 5775 5775 5774 5773 5773 5773 5772 5771 5771 5770 5769 5768 5767 5766 5765 5765 5763 5762 5761 5759 5758 5757 5755 5754 5754 5753
5839 5820 5790 5779 5792 5805 5812 5817 5811 5800 5794 5793 5789 5779 5773 5787 5786 5785 5784 5782 5780 5778 5776 5775 5774 5774 5773 5772 5772 5771 5770 5769 5769 5768 5767 5766 5765 5764 5763 5762 5761 5760 5758 5757 5756 5755 5754 5753 5752
5832 5811 5795 5793 5796 5801 5812 5821 5812 5802 5795 5795 5795 5779 5775 5783 5788 5788 5785 5783 5781 5779 5777 5775 5774 5773 5772 5771 5771 5770 5769 5768 5768 5767 5766 5765 5764 5763 5762 5761 5760 5759 5758 5757 5756 5755 5754 5753 5752
5849 5820 5803 5799 5799 5802 5820 5825 5820 5812 5803 5808 5803 5782 5774 5785 5791 5789 5785 5783 5780 5779 5777 5775 5774 5773 5772 5771 5770 5769 5768 5767 5767 5766 5765 5765 5763 5762 5761 5760 5759 5759 5758 5757 5756 5755 5754 5754 5753
5859 5815 5797 5804 5807 5811 5826 5822 5819 5823 5814 5810 5808 5799 5795 5797 5794 5786 5781 5778 5777 5777 5777 5776 5774 5773 5772 5771 5770 5769 5768 5767 5766 5765 5765 5763 5762 5761 5760 5760 5759 5758 5758 5757 5756 5756 5755 5754 5753
5847 5812 5815 5832 5831 5826 5828 5824 5820 5812 5803 5799 5799 5801 5801 5798 5792 5785 5779 5776 5776 5776 5776 5777 5775 5774 5772 5771 5770 5769 5767 5766 5766 5765 5764 5763 5761 5761 5760 5760 5759 5759 5758 5757 5757 5756 5756 5755 5754
5850 5832 5839 5844 5845 5839 5829 5825 5827 5810 5796 5799 5798 5797 5799 5796 5792 5787 5784 5782 5781 5780 5780 5779 5777 5775 5774 5772 5770 5769 5768 5766 5765 5765 5763 5762 5761 5760 5760 5759 5759 5759 5758 5757 5757 5756 5756 5756 5756
5852 5850 5852 5847 5850 5841 5834 5829 5822 5815 5810 5816 5813 5808 5803 5796 5792 5790 5788 5786 5785 5783 5782 5782 5780 5777 5775 5774 5772 5770 5768 5767 5766 5765 5764 5762 5761 5760 5760 5759 5759 5758 5758 5757 5757 5757 5757 5757 5757
5849 5847 5853 5854 5851 5847 5840 5831 5826 5819 5822 5821 5816 5810 5804 5800 5797 5796 5795 5792 5789 5786 5785 5784 5783 5780 5778 5775 5773 5772 5770 5769 5768 5767 5765 5764 5762 5761 5760 5760 5759 5759 5758 5757 5757 5757 5757 5757 5757
5851 5850 5849 5850 5848 5847 5836 5829 5826 5819 5825 5819 5814 5809 5807 5804 5801 5798 5796 5792 5790 5789 5787 5786 5784 5783 5780 5777 5775 5774 5772 5770 5769 5768 5766 5765 5764 5763 5761 5761 5760 5759 5758 5759 5758 5758 5757 5757 5757
5858 5842 5837 5841 5843 5841 5837 5815 5818 5826 5825 5817 5814 5811 5809 5806 5805 5801 5800 5797 5795 5792 5791 5789 5787 5784 5781 5779 5777 5775 5773 5772 5770 5769 5768 5767 5766 5764 5762 5761 5761 5760 5760 5759 5759 5758 5757 5757 5757
5845 5829 5813 5830 5841 5839 5826 5797 5818 5829 5823 5815 5814 5812 5808 5807 5808 5807 5805 5801 5799 5795 5792 5791 5790 5786 5783 5780 5778 5776 5775 5773 5772 5771 5769 5768 5766 5765 5763 5762 5761 5761 5761 5760 5758 5757 5755 5755 5754
5819 5807 5810 5821 5839 5837 5822 5804 5820 5829 5823 5816 5815 5813 5810 5807 5807 5809 5809 5806 5802 5798 5795 5792 5790 5787 5785 5782 5779 5778 5776 5775 5773 5771 5769 5768 5767 5766 5764 5763 5762 5762 5761 5759 5759 5757 5755 5753 5753
5803 5808 5812 5813 5832 5833 5819 5814 5822 5828 5825 5819 5817 5815 5812 5810 5810 5813 5811 5809 5806 5802 5798 5794 5791 5788 5786 5783 5780 5778 5776 5775 5774 5772 5770 5768 5767 5767 5765 5763 5762 5762 5760 5759 5757 5755 5755 5753 5753
5822 5815 5810 5820 5839 5829 5817 5815 5821 5827 5825 5821 5818 5816 5814 5813 5817 5817 5814 5812 5807 5803 5798 5794 5792 5789 5787 5783 5779 5776 5773 5774 5773 5772 5770 5769 5768 5767 5765 5763 5762 5761 5759 5758 5757 5756 5753 5752 5752
5823 5813 5812 5824 5839 5829 5815 5814 5823 5827 5828 5827 5823 5820 5818 5815 5814 5815 5814 5812 5808 5804 5801 5797 5794 5792 5790 5786 5783 5779 5777 5775 5774 5773 5771 5770 5769 5767 5766 5763 5762 5760 5758 5757 5757 5755 5752 5750 5751
5819 5814 5815 5817 5827 5827 5814 5801 5808 5821 5828 5829 5828 5826 5824 5821 5818 5817 5815 5813 5810 5807 5804 5802 5798 5795 5793 5789 5785 5781 5777 5774 5772 5770 5770 5769 5768 5767 5765 5763 5762 5761 5759 5757 5756 5756 5752 5748 5749
5810 5832 5831 5824 5806 5793 5804 5772 5794 5808 5814 5821 5824 5825 5824 5824 5823 5820 5818 5815 5813 5812 5810 5806 5802 5798 5795 5791 5786 5780 5774 5770 5770 5770 5769 5769 5768 5767 5765 5763 5762 5761 5760 5758 5757 5756 5754 5751 5748
5825 5841 5834 5825 5805 5790 5795 5777 5784 5803 5803 5814 5824 5828 5828 5828 5826 5824 5823 5820 5818 5816 5812 5808 5804 5799 5796 5793 5788 5782 5777 5774 5773 5771 5769 5767 5767 5765 5763 5763 5762 5761 5759 5757 5756 5755 5754 5752 5749
5839 5828 5817 5803 5788 5769 5787 5778 5775 5796 5811 5820 5827 5831 5831 5830 5830 5828 5826 5823 5820 5817 5813 5809 5804 5800 5797 5793 5789 5784 5779 5775 5771 5769 5766 5764 5764 5763 5762 5761 5760 5759 5757 5756 5755 5754 5753 5752 5750
5822 5790 5764 5761 5750 5758 5786 5784 5785 5817 5830 5831 5830 5832 5835 5833 5830 5827 5824 5821 5818 5816 5813 5809 5804 5799 5797 5794 5789 5785 5781 5777 5772 5769 5766 5763 5761 5760 5760 5760 5758 5757 5756 5755 5754 5753 5752 5751 5749
5809 5790 5758 5746 5745 5757 5782 5779 5801 5832 5840 5841 5839 5837 5837 5834 5832 5830 5827 5824 5822 5818 5814 5810 5805 5800 5797 5793 5789 5786 5782 5778 5774 5770 5767 5764 5762 5761 5761 5759 5757 5757 5756 5755 5753 5751 5750 5750 5748
5804 5790 5791 5766 5761 5754 5765 5786 5810 5831 5832 5833 5832 5832 5832 5833 5833 5831 5829 5827 5824 5820 5816 5812 5807 5801 5797 5793 5789 5785 5781 5777 5774 5770 5767 5765 5763 5761 5760 5758 5757 5756 5755 5753 5751 5748 5747 5747 5746
5815 5803 5774 5758 5743 5740 5759 5772 5782 5807 5817 5824 5825 5827 5830 5832 5832 5831 5829 5827 5825 5822 5817 5813 5808 5802 5797 5793 5789 5785 5781 5777 5774 5770 5766 5763 5762 5760 5758 5757 5755 5754 5752 5751 5748 5746 5745 5743 5742
5800 5794 5775 5757 5755 5740 5739 5763 5810 5814 5821 5823 5826 5829 5829 5830 5828 5828 5828 5827 5825 5821 5816 5811 5806 5800 5795 5791 5787 5783 5779 5775 5772 5768 5765 5762 5761 5759 5756 5754 5752 5750 5748 5747 5745 5742 5741 5738 5736
5803 5793 5775 5756 5752 5749 5746 5765 5824 5825 5827 5827 5828 5830 5830 5829 5829 5827 5826 5824 5820 5816 5812 5807 5803 5798 5794 5790 5785 5781 5776 5772 5769 5765 5763 5761 5758 5757 5754 5752 5749 5746 5744 5742 5740 5737 5736 5733 5730